Flag Weather past 2 weeks in Nagano, Japan

Now
53 °F

Passing clouds.


Feels Like: 50 °F
Forecast: 39 / 62 °F
Wind: 8 mph from East

Location: Nagano

Current Time: Nov 23, 2014 at 4:31:44 PM

Latest Report: Nov 23, 2014 at 3:00 PM


Visibility: 16 mi

Pressure: 30.23 "Hg

Humidity: 62%

Dew point: 40 °F

Location of NaganoLocation

Historic Weather in Nagano — Graph

°F

Nagano temperature yesterday

Maximum temperature yesterday: 62 °F (at 2:00 PM)
Minimum temperature yesterday: 38 °F (at 6:00 AM)
Average temperature yesterday: 47 °F

Past Weeks' High & Low Weather Summary

 TemperatureHumidityPressure
High62 °F (Nov 22, 2:00 PM)97% (Nov 9, 11:00 PM)30.42 "Hg (Nov 9, 11:00 PM)
Low30 °F (Nov 21, 6:00 AM)29% (Nov 14, 1:00 PM)29.59 "Hg (Nov 12, 3:00 PM)
Average44 °F75%30.14 "Hg
* Reported Nov 8 3:00 PM — Nov 23 3:00 PM, Nagano, Weather by CustomWeather, © 2014

Note: Actual official high and low records may vary slightly from our data, if they occured in-between our weather recording intervals... More about our weather records

Advertising

Nagano weather history for previous 24 hours

 ConditionsComfort  
Time TempWeatherWind HumidityBarometerVisibility
3:00 PM
Nov 23
53 °FPassing clouds.8 mph62%30.23 "Hg16 mi
2:00 PM54 °FCool.7 mph59%30.23 "HgN/A
1:00 PM51 °FCool.7 mph70%30.24 "HgN/A
12:00 PM47 °FCool.8 mph77%30.28 "HgN/A
11:00 AM46 °FCool.6 mph77%30.29 "HgN/A
10:00 AM43 °FQuite cool.3 mph78%30.34 "HgN/A
9:00 AM40 °FOvercast.2 mph87%30.34 "Hg4 mi
8:00 AM38 °FChilly.1 mph87%30.32 "HgN/A
7:00 AM37 °FChilly.1 mph88%30.29 "HgN/A
6:00 AM36 °FChilly.1 mph92%30.28 "HgN/A
5:00 AM37 °FChilly.3 mph90%30.27 "HgN/A
4:00 AM38 °FChilly.3 mph86%30.25 "HgN/A
3:00 AM39 °FClear.3 mph83%30.26 "Hg9 mi
2:00 AM40 °FQuite cool.5 mph81%30.26 "HgN/A
1:00 AM42 °FQuite cool.5 mph76%30.24 "HgN/A
12:00 AM42 °FQuite cool.3 mph79%30.26 "HgN/A
11:00 PM
Nov 22
43 °FQuite cool.3 mph73%30.25 "HgN/A
10:00 PM44 °FQuite cool.2 mph74%30.24 "HgN/A
9:00 PM46 °FClear.5 mph67%30.24 "Hg9 mi
8:00 PM47 °FCool.1 mph70%30.24 "HgN/A
7:00 PM50 °FCool.2 mph62%30.22 "HgN/A
6:00 PM53 °FCool.6 mph56%30.19 "HgN/A
5:00 PM56 °FRefreshingly cool.10 mph48%30.15 "HgN/A
4:00 PM59 °FRefreshingly cool.7 mph39%30.12 "HgN/A
Weather by CustomWeather, © 2014

See weather overviewHow to use our weather pages